[[{"header":{"parameterUnit":"m.s-1","parameterCategory":1,"la1":30.2991,"la2":30.254,"lo1":-89.0895,"lo2":-89.0444,"dy":0.0017,"dx":0.0017,"nx":28,"ny":28,"refTime":"2024-03-11T21:00:00:Z","depth":0,"parameterNumber":2,"parameterNumberName":"U-component_of_WINDS"},"data":[0,0,0,0,0,0,0,0,0,0,0,0,0,0,0,0,0,0,0,0,0,0,0,0,0,0,0,0,0,0,0,0,0,0,0,0,0,0,0,0,0,0,0,0,0,0,0,0,0,0,0,0,0,0,0,0,0,0,-0.0794,-0.0793,0,-0.0669,-0.0667,-0.0666,-0.0552,-0.0551,-0.0549,-0.0548,-0.0421,-0.0419,-0.0417,0,0,0,0,0,0,0,0,0,0,0,0,0,-0.0937,-0.0935,-0.0794,-0.0793,-0.0791,-0.0669,-0.0667,-0.0666,-0.0552,-0.055,-0.0549,-0.0547,-0.0421,-0.0419,-0.0416,0,0,0,0,0,0,0,0,0,0,0,0,0,-0.085,-0.0934,-0.0795,-0.072,-0.0712,-0.0669,-0.0667,-0.0665,-0.0552,-0.055,-0.0548,-0.0546,-0.0422,-0.0419,-0.0416,-0.0438,0,0,-0.0406,-0.0405,0,0,0,0,0,0,0,0,-0.0855,-0.0845,-0.0732,-0.0725,-0.0716,-0.0624,-0.0671,-0.0589,-0.0553,-0.0613,-0.0548,-0.0545,-0.049,-0.0481,-0.0462,-0.0432,-0.0427,-0.0406,-0.0404,-0.0403,-0.0402,0,0,0,0,0,0,0,-0.0861,-0.085,-0.0745,-0.0731,-0.0721,-0.0693,-0.0678,-0.0655,-0.0565,-0.0608,-0.0599,-0.0586,-0.0485,-0.0466,-0.0458,-0.0425,-0.0406,-0.0403,-0.0402,-0.04,-0.0407,-0.0409,0,0,0,0,0,0,-0.0878,-0.0855,-0.0749,-0.0741,-0.0782,-0.0692,-0.0676,-0.0656,-0.0565,-0.0549,-0.0588,-0.0581,-0.0472,-0.0462,-0.0454,-0.0474,-0.0403,-0.04,-0.0398,-0.0405,-0.0408,-0.041,0,0,0,0,0,0,-0.0882,-0.087,-0.0754,-0.0796,-0.0779,-0.0692,-0.067,-0.0654,-0.0634,-0.0549,-0.0533,-0.0584,-0.047,-0.0458,-0.0443,-0.0468,-0.0399,-0.0396,-0.0403,-0.0406,-0.0409,-0.0515,0,0,0,0,0,0,-0.0887,-0.0872,-0.0879,-0.0797,-0.0777,-0.0745,-0.0672,-0.0653,-0.0629,-0.0619,-0.0542,-0.0527,-0.0467,-0.0448,-0.044,-0.0463,-0.0393,-0.04,-0.0404,-0.0408,-0.0509,-0.0522,-0.0533,0,0,0,0,0,-0.0892,-0.0914,-0.088,-0.0868,-0.0784,-0.0747,-0.0735,-0.0666,-0.0632,-0.0638,-0.0584,-0.0529,-0.0467,-0.0448,-0.0437,-0.0459,-0.0398,-0.0403,-0.0408,-0.0504,-0.0519,-0.0532,0,0,0,0,0,0,-0.1002,-0.0902,-0.0863,-0.0859,-0.0812,-0.0728,-0.0734,-0.0684,-0.0647,-0.0639,-0.0555,-0.0538,-0.0533,-0.0494,-0.0475,-0.0476,-0.0425,-0.0428,-0.0502,-0.0516,-0.0527,-0.0537,-0.0391,0,0,0,0,0,-0.1025,-0.1003,-0.0917,-0.0922,-0.09,-0.0822,-0.0803,-0.0753,-0.0702,-0.0681,-0.0626,-0.0578,-0.0548,-0.0529,-0.0496,-0.0503,-0.0485,-0.0513,-0.0525,-0.0535,-0.0539,-0.054,-0.0552,-0.0426,-0.0425,-0.0425,0,0,-0.1074,-0.1017,-0.1008,-0.0942,-0.09,-0.088,-0.0806,-0.0787,-0.0771,-0.0678,-0.0661,-0.0619,-0.056,-0.0557,-0.0552,-0.0524,-0.057,-0.0541,-0.0549,-0.0547,-0.0546,-0.0559,-0.0569,-0.0429,-0.0428,-0.0428,0,0,-0.1152,-0.1106,-0.1106,-0.1065,-0.1003,-0.095,-0.095,-0.0873,-0.0842,-0.0823,-0.0753,-0.0734,-0.0683,-0.0644,-0.0618,-0.0683,-0.0632,-0.0675,-0.0736,-0.0739,-0.0749,-0.0757,-0.0782,-0.0791,-0.0678,-0.0679,-0.0679,0,-0.1221,-0.1187,-0.1112,-0.1097,-0.1071,-0.0986,-0.0986,-0.095,-0.0881,-0.0865,-0.0834,-0.0769,-0.0724,-0.0711,-0.0727,-0.0708,-0.0706,-0.0683,-0.0753,-0.0761,-0.0768,-0.079,-0.08,-0.0684,-0.0684,-0.0683,-0.0683,0,-0.1275,-0.1253,-0.1259,-0.1194,-0.1169,-0.1162,-0.1086,-0.1069,-0.1023,-0.0974,-0.0956,-0.0899,-0.0854,-0.0846,-0.08,-0.0827,-0.0812,-0.0769,-0.0716,-0.0787,-0.0807,-0.0814,-0.0693,-0.0691,-0.0689,-0.0687,0,0,-0.1419,-0.1313,-0.1317,-0.1287,-0.1212,-0.1193,-0.1183,-0.1138,-0.1126,-0.1081,-0.1071,-0.103,-0.0989,-0.096,-0.0909,-0.0911,-0.0968,-0.0867,-0.0865,-0.0889,-0.0996,-0.103,-0.1041,-0.0934,-0.0935,-0.0936,-0.1001,0,-0.1486,-0.1461,-0.1394,-0.139,-0.1369,-0.1289,-0.128,-0.1234,-0.1188,-0.1164,-0.1113,-0.1086,-0.1034,-0.1016,-0.1015,-0.0962,-0.0989,-0.0956,-0.0925,-0.0925,-0.0943,-0.1051,-0.1087,-0.1151,-0.1009,-0.101,-0.1011,0,-0.156,-0.1521,-0.1516,-0.1443,-0.1431,-0.1424,-0.1379,-0.1356,-0.1303,-0.1269,-0.1237,-0.118,-0.1166,-0.1116,-0.1096,-0.1075,-0.1058,-0.103,-0.1031,-0.1026,-0.0973,-0.1051,-0.117,-0.118,-0.1022,-0.1021,-0.102,0,-0.1668,-0.1613,-0.1603,-0.1579,-0.1494,-0.1491,-0.1455,-0.1399,-0.1377,-0.1337,-0.1323,-0.1282,-0.126,-0.123,-0.1165,-0.1135,-0.1152,-0.1097,-0.1125,-0.1127,-0.1133,-0.1134,-0.1253,-0.1121,-0.1121,-0.1121,-0.112,0,-0.175,-0.175,-0.165,-0.1644,-0.1642,-0.1565,-0.1566,-0.1522,-0.1474,-0.1458,-0.1386,-0.1374,-0.1287,-0.1265,-0.1214,-0.1205,-0.1196,-0.1169,-0.1156,-0.1176,-0.118,-0.1165,-0.1159,-0.1123,-0.1123,-0.1122,-0.1122,0,-0.187,-0.1803,-0.1787,-0.1707,-0.1687,-0.169,-0.1621,-0.1613,-0.1563,-0.1545,-0.1537,-0.1459,-0.1429,-0.136,-0.1312,-0.1278,-0.1283,-0.1258,-0.1302,-0.1293,-0.1326,-0.1325,-0.144,-0.1452,-0.1313,-0.1314,-0.1315,0,-0.1928,-0.1926,-0.1846,-0.1831,-0.1798,-0.1774,-0.1751,-0.1676,-0.1655,-0.1594,-0.1594,-0.1558,-0.1526,-0.1483,-0.1422,-0.1386,-0.136,-0.1403,-0.1354,-0.1375,-0.1362,-0.1364,-0.1364,-0.1414,-0.1416,-0.1418,-0.1419,0,-0.2037,-0.2004,-0.1974,-0.1933,-0.1908,-0.1872,-0.1831,-0.1823,-0.1738,-0.1719,-0.1687,-0.1663,-0.1614,-0.158,-0.1534,-0.1498,-0.1445,-0.1435,-0.144,-0.1461,-0.1487,-0.1475,-0.1333,-0.1433,-0.1431,-0.143,-0.1429,-0.1429,-0.2128,-0.2124,-0.2067,-0.2037,-0.1998,-0.1963,-0.1952,-0.1901,-0.1873,-0.1827,-0.1784,-0.1758,-0.1705,-0.1638,-0.1606,-0.1585,-0.1557,-0.1564,-0.1566,-0.1569,-0.1579,-0.149,-0.1576,-0.1575,-0.1575,-0.1574,-0.1574,0,-0.2236,-0.2196,-0.2168,-0.2114,-0.2091,-0.2042,-0.1995,-0.1979,-0.1956,-0.1911,-0.1881,-0.1846,-0.1814,-0.1751,-0.1713,-0.1708,-0.1683,-0.1701,-0.1701,-0.1694,-0.1605,-0.1605,-0.1722,-0.1722,-0.1722,-0.1722,-0.1722,-0.1722,-0.2289,-0.2279,-0.2239,-0.221,-0.217,-0.2143,-0.2121,-0.2088,-0.2052,-0.2016,-0.1989,-0.1948,-0.1896,-0.1854,-0.1823,-0.1805,-0.1795,-0.1821,-0.1796,-0.1714,-0.17,-0.1687,-0.1687,-0.1819,-0.182,-0.1888,-0.1888,-0.1889]},{"header":{"parameterUnit":"m.s-1","parameterCategory":1,"la1":30.2991,"la2":30.254,"lo1":-89.0895,"lo2":-89.0444,"dy":0.0017,"dx":0.0017,"nx":28,"ny":28,"refTime":"2024-03-11T21:00:00:Z","depth":0,"parameterNumber":3,"parameterNumberName":"V-component_of_WINDS"},"data":[0,0,0,0,0,0,0,0,0,0,0,0,0,0,0,0,0,0,0,0,0,0,0,0,0,0,0,0,0,0,0,0,0,0,0,0,0,0,0,0,0,0,0,0,0,0,0,0,0,0,0,0,0,0,0,0,0,0,0.259,0.259,0,0.2537,0.2537,0.2536,0.2532,0.2532,0.2533,0.2534,0.2475,0.2473,0.2471,0,0,0,0,0,0,0,0,0,0,0,0,0,0.2683,0.2682,0.259,0.259,0.2589,0.2538,0.2537,0.2536,0.2532,0.2533,0.2533,0.2534,0.2476,0.2473,0.2471,0,0,0,0,0,0,0,0,0,0,0,0,0,0.2638,0.2681,0.259,0.2581,0.2579,0.2538,0.2537,0.2536,0.2532,0.2533,0.2533,0.2534,0.2477,0.2474,0.2471,0.2434,0,0,0.2461,0.246,0,0,0,0,0,0,0,0,0.264,0.2634,0.2583,0.2581,0.258,0.2542,0.2548,0.2501,0.2531,0.255,0.2534,0.2535,0.2497,0.2492,0.248,0.2431,0.2428,0.2461,0.2459,0.2457,0.2457,0,0,0,0,0,0,0,0.2644,0.2637,0.2569,0.2582,0.258,0.2578,0.2572,0.2539,0.2519,0.2548,0.2548,0.2542,0.2496,0.2483,0.2478,0.2428,0.2461,0.2458,0.2456,0.2455,0.2343,0.2342,0,0,0,0,0,0,0.2649,0.2639,0.2571,0.2568,0.2613,0.2575,0.2569,0.2553,0.2519,0.2515,0.2541,0.2542,0.2488,0.2482,0.2476,0.2429,0.2457,0.2454,0.2453,0.2344,0.2343,0.2342,0,0,0,0,0,0,0.2651,0.2643,0.2573,0.2603,0.2594,0.2573,0.2555,0.2552,0.2539,0.2514,0.251,0.2532,0.2488,0.2481,0.2444,0.2427,0.2453,0.245,0.2346,0.2344,0.2342,0.2335,0,0,0,0,0,0,0.2654,0.2644,0.2631,0.2603,0.2593,0.2543,0.2554,0.255,0.2534,0.2534,0.2504,0.25,0.2488,0.2449,0.2441,0.2423,0.2448,0.2347,0.2345,0.2343,0.2337,0.2333,0.233,0,0,0,0,0,0.2657,0.263,0.263,0.2622,0.2576,0.2542,0.2536,0.2525,0.2533,0.2518,0.2502,0.2501,0.2431,0.2445,0.2436,0.2417,0.2348,0.2345,0.2343,0.2338,0.2334,0.2331,0,0,0,0,0,0,0.2655,0.2626,0.2626,0.259,0.2568,0.2542,0.2523,0.2521,0.2496,0.2497,0.2483,0.2476,0.2439,0.2425,0.2442,0.2378,0.239,0.2386,0.2389,0.2385,0.2382,0.2385,0.2445,0,0,0,0,0,0.2651,0.2627,0.2603,0.2573,0.2562,0.2545,0.2529,0.2523,0.25,0.249,0.2471,0.2448,0.242,0.2402,0.2376,0.2335,0.2327,0.2318,0.2315,0.2312,0.2308,0.2283,0.2278,0.2334,0.2334,0.2334,0,0,0.2641,0.2622,0.2608,0.2572,0.2555,0.2529,0.2537,0.251,0.2489,0.2486,0.2449,0.2435,0.2407,0.2368,0.235,0.2355,0.2291,0.2309,0.2307,0.2304,0.228,0.2275,0.227,0.2332,0.2333,0.2333,0,0,0.2609,0.2593,0.2566,0.2549,0.2523,0.2511,0.2505,0.2478,0.2468,0.2432,0.2428,0.2404,0.2357,0.2337,0.2321,0.2281,0.2278,0.2273,0.2256,0.2232,0.2227,0.2223,0.2206,0.2201,0.2269,0.2269,0.2269,0,0.2599,0.2561,0.2552,0.2524,0.2507,0.2504,0.2475,0.2458,0.2424,0.2412,0.2419,0.236,0.2341,0.2296,0.2286,0.2274,0.2264,0.2275,0.2229,0.2225,0.2221,0.2204,0.2199,0.2268,0.2268,0.2268,0.2269,0,0.2549,0.2522,0.2503,0.2471,0.2453,0.2425,0.2409,0.2392,0.2387,0.2374,0.2336,0.2314,0.2282,0.2271,0.2266,0.2225,0.2228,0.2232,0.2243,0.2215,0.2199,0.2193,0.2267,0.2268,0.2268,0.2268,0,0,0.2513,0.2477,0.2469,0.2454,0.2425,0.2404,0.2375,0.2345,0.2328,0.2306,0.2279,0.224,0.2243,0.2225,0.2217,0.2196,0.2163,0.2202,0.2201,0.2193,0.2113,0.2109,0.2102,0.2162,0.2161,0.216,0.2115,0,0.2475,0.2425,0.2415,0.237,0.2344,0.2341,0.2315,0.2294,0.2281,0.2256,0.2241,0.2213,0.2221,0.2209,0.2189,0.2171,0.2146,0.2175,0.2134,0.2133,0.2139,0.2094,0.2089,0.2048,0.2109,0.2108,0.2107,0,0.2425,0.2401,0.2354,0.2327,0.2316,0.2293,0.2264,0.2241,0.2216,0.2208,0.2187,0.2182,0.2149,0.2164,0.2117,0.2137,0.212,0.2109,0.2107,0.2101,0.2117,0.2084,0.2034,0.2027,0.2098,0.2099,0.2099,0,0.24,0.2356,0.2322,0.2309,0.2278,0.2262,0.2248,0.2224,0.2206,0.218,0.2168,0.2139,0.2122,0.2098,0.2084,0.2096,0.2038,0.2052,0.2028,0.2028,0.2014,0.2014,0.1958,0.2008,0.2008,0.2008,0.2008,0,0.2358,0.2328,0.231,0.2288,0.2254,0.2243,0.221,0.2196,0.2174,0.2149,0.2145,0.212,0.2104,0.2077,0.2066,0.2028,0.2021,0.2012,0.2009,0.2011,0.2011,0.1997,0.1999,0.2006,0.2007,0.2007,0.2007,0,0.2323,0.231,0.2272,0.2246,0.2238,0.2214,0.2191,0.2169,0.2156,0.2124,0.2115,0.2095,0.2063,0.2047,0.2007,0.2,0.1955,0.1956,0.1964,0.1962,0.1938,0.194,0.1869,0.1858,0.1917,0.1917,0.1917,0,0.2296,0.2273,0.2244,0.2227,0.2213,0.2186,0.2167,0.2156,0.2137,0.2106,0.2087,0.2055,0.2028,0.1977,0.1957,0.1926,0.1924,0.1901,0.1919,0.1921,0.192,0.192,0.1916,0.1897,0.1896,0.1896,0.1896,0,0.2247,0.2242,0.2216,0.2188,0.2166,0.2143,0.2121,0.2107,0.2091,0.207,0.2037,0.2017,0.1976,0.1943,0.191,0.1894,0.1891,0.1891,0.1883,0.1883,0.1887,0.1882,0.1952,0.1891,0.1892,0.1892,0.1892,0.1893,0.2213,0.2192,0.2168,0.2139,0.2121,0.21,0.2077,0.2063,0.2036,0.2002,0.1997,0.1961,0.1936,0.1892,0.1875,0.1846,0.185,0.184,0.1837,0.1834,0.1831,0.1895,0.184,0.184,0.184,0.184,0.184,0,0.2162,0.2147,0.2121,0.2089,0.2066,0.2068,0.2042,0.2022,0.1991,0.1968,0.1943,0.1904,0.1872,0.1851,0.1818,0.1798,0.1796,0.179,0.1789,0.1785,0.183,0.1838,0.1792,0.1792,0.1792,0.1792,0.1792,0.1792,0.2133,0.2096,0.2088,0.2041,0.2026,0.1992,0.1977,0.1956,0.1938,0.1895,0.1869,0.1856,0.1833,0.1798,0.1768,0.1763,0.1749,0.1742,0.1736,0.1778,0.1782,0.1787,0.1795,0.174,0.174,0.1694,0.1693,0.1693]}]]